Wind_Speed
18 17 17 17 17 17 17 17 16 15 15 14 13 12 12 12 12 12 11 10 9 8 8 7 7 7 7 6 6 5 5 4 4 3 2 2 2 1 2 2 2 2 2
20 19 19 19 18 18 18 18 18 17 16 15 15 14 14 14 13 13 13 12 11 10 9 9 9 8 8 8 7 7 6 6 5 5 4 3 3 3 2 3 3 2 2
21 21 21 21 20 20 20 20 19 19 18 18 17 16 15 15 15 15 15 14 13 12 12 11 11 10 10 9 9 8 8 7 6 6 5 4 4 4 3 3 3 3 3
22 22 22 22 22 22 21 21 21 21 21 20 19 18 18 17 17 17 16 16 15 15 14 13 13 12 11 11 10 10 9 8 8 7 7 6 6 5 5 4 4 4 4
24 24 24 24 24 24 23 23 23 23 22 21 21 20 20 19 19 19 18 17 16 16 16 15 14 14 13 13 12 11 11 10 10 9 8 8 7 7 6 6 5 5 5
26 26 26 26 25 25 25 25 25 24 24 24 23 23 22 21 21 20 20 19 18 18 18 17 17 16 16 15 14 13 13 12 12 11 10 9 9 9 8 7 7 7 7
28 28 28 27 27 27 27 27 26 26 26 26 25 25 24 24 23 22 22 21 20 20 20 20 19 18 18 17 17 16 15 14 13 13 13 12 11 10 10 9 9 8 8
31 30 30 29 29 29 29 29 28 27 28 28 28 27 26 25 25 24 24 23 22 21 21 21 21 20 19 19 19 18 17 17 16 15 15 14 13 12 12 11 11 11 10
33 33 33 32 31 31 31 31 30 29 29 30 30 29 28 27 26 26 25 25 24 23 23 22 22 22 21 21 20 20 19 19 18 17 16 16 15 15 14 13 12 12 12
34 34 34 34 33 33 33 32 32 32 31 31 31 31 31 29 29 28 27 26 26 25 25 23 24 23 22 22 21 21 20 20 20 19 18 17 17 16 16 15 14 14 14
36 35 35 35 35 35 35 34 33 34 33 32 32 33 33 32 31 30 28 28 27 27 27 26 25 25 24 24 23 23 22 22 22 21 20 20 19 18 17 17 16 16 15
36 36 36 36 36 37 36 36 35 35 35 34 33 34 35 34 34 32 31 30 29 29 29 29 28 27 26 26 25 25 24 24 24 23 23 23 22 21 19 19 18 18 17
37 37 38 37 37 37 37 37 37 37 36 36 36 35 35 36 35 34 33 32 32 31 30 30 30 29 28 28 28 27 27 26 25 25 25 24 24 23 22 21 20 20 19
39 39 39 39 38 38 38 38 38 37 36 37 37 37 37 36 36 36 35 34 33 33 32 32 32 31 30 30 29 29 28 28 28 27 27 26 26 25 24 23 23 22 22
40 40 39 39 39 39 39 39 39 38 38 38 38 38 38 37 37 37 37 37 36 36 35 33 33 33 32 32 31 31 30 29 29 29 28 28 27 27 25 24 25 24 23
40 40 41 40 40 41 41 40 40 40 40 40 39 40 40 39 38 38 39 38 38 37 37 36 35 35 35 33 33 33 32 31 30 30 30 30 29 28 27 27 26 26 25
41 41 41 42 42 42 42 42 41 40 41 41 40 40 41 41 40 39 40 40 40 39 38 38 37 37 37 36 35 35 35 34 33 32 31 31 31 30 30 29 29 28 27
41 41 42 42 42 42 43 43 43 41 41 41 41 40 41 42 41 41 40 41 41 40 40 39 38 38 39 38 37 37 37 36 35 35 34 33 32 31 32 31 32 31 30
41 41 42 42 43 43 43 44 43 43 42 42 41 41 41 42 43 42 41 42 42 41 42 41 40 39 40 39 39 39 39 38 37 37 36 35 35 34 33 33 33 33 33
42 42 42 43 43 44 44 44 45 45 44 44 43 43 43 43 43 44 44 43 43 43 43 42 41 40 41 41 40 40 41 40 38 38 38 37 37 36 35 35 35 35 34
43 43 43 44 44 45 45 46 46 46 46 45 44 44 44 44 43 44 45 45 45 44 44 44 44 42 42 42 42 42 42 42 41 40 39 40 39 39 38 38 37 37 36
44 44 44 44 44 46 46 47 47 47 47 47 47 47 46 46 46 45 45 45 46 46 45 45 46 44 44 43 43 43 43 43 43 43 42 41 40 40 39 39 39 38 38
45 45 45 45 46 46 47 48 48 49 48 48 48 48 48 48 47 48 46 45 46 47 46 46 47 46 45 45 44 44 43 43 44 44 43 42 42 41 41 41 41 40 40
46 46 46 47 47 47 47 49 50 50 50 49 49 49 49 49 49 49 49 47 47 47 48 48 47 47 47 47 46 46 46 46 45 44 44 44 44 43 43 43 43 42 42
45 46 47 48 49 48 49 50 50 51 51 51 51 51 51 52 51 50 50 49 48 49 49 48 48 48 48 48 48 48 47 47 46 46 45 45 45 45 45 45 45 44 44
45 46 47 49 50 50 51 51 51 52 52 52 52 53 53 54 53 52 52 51 50 50 51 51 50 50 50 50 50 49 49 49 48 47 47 47 47 47 47 46 46 46 45
Wind_Direction
248 248 248 247 246 245 244 244 244 244 243 241 241 240 240 240 239 240 242 243 244 243 244 241 238 238 235 234 232 234 232 234 235 241 250 259 268 281 305 320 327 333 338
251 249 249 249 248 247 246 244 244 243 243 241 240 241 242 242 243 243 241 243 246 248 249 248 245 244 239 234 233 235 235 236 239 242 246 249 254 262 279 295 305 308 319
251 250 249 249 248 248 247 246 245 244 244 242 241 242 242 244 246 246 246 245 246 248 248 248 248 247 243 239 238 236 236 238 241 243 245 249 254 257 264 280 292 292 300
251 250 249 248 248 248 248 248 247 245 245 244 243 243 243 244 246 247 248 248 248 248 248 248 248 246 244 241 240 240 240 241 243 244 246 250 254 256 260 269 276 278 285
249 249 249 249 249 249 249 249 249 247 246 246 246 245 244 245 246 246 247 249 248 248 249 249 248 246 245 244 243 243 243 245 246 246 248 249 250 253 259 264 267 270 276
250 249 249 249 249 249 249 250 249 248 247 246 246 246 245 245 245 246 246 247 249 249 250 251 251 249 246 246 245 245 246 247 247 248 250 250 249 250 256 262 264 269 272
253 251 250 250 250 250 250 250 249 249 247 247 246 246 246 246 246 246 247 246 247 249 250 251 250 249 248 247 247 247 247 248 249 250 250 250 251 254 257 260 263 267 270
254 253 251 251 251 251 250 250 250 250 249 247 246 246 246 246 246 246 245 246 246 247 249 250 252 251 250 249 249 248 247 248 251 253 251 249 250 253 255 258 261 264 268
254 254 252 251 251 250 250 250 249 249 249 248 246 246 245 246 245 246 246 245 245 246 247 249 251 251 251 249 248 248 248 249 250 252 252 251 251 252 254 256 259 262 264
254 254 253 251 251 251 250 251 250 249 249 249 248 247 246 245 245 246 246 246 245 245 245 247 250 250 251 249 248 248 249 250 250 251 253 253 252 254 255 255 256 259 262
255 255 253 252 252 251 251 251 251 250 251 251 250 248 247 246 246 246 246 246 245 245 246 247 249 249 249 250 249 250 250 251 250 251 253 254 253 254 256 256 254 256 258
255 254 254 254 253 252 252 252 252 251 251 251 251 250 248 247 246 246 246 245 245 246 247 247 249 250 250 251 251 250 251 251 252 252 253 254 253 253 255 257 255 255 256
255 255 255 254 253 253 253 252 252 252 252 251 251 250 249 248 246 246 246 245 245 245 246 247 249 250 250 251 252 252 251 252 252 253 254 254 254 252 252 254 255 254 255
257 255 255 255 253 254 254 253 252 252 252 252 252 251 250 249 247 246 245 245 244 244 245 247 248 249 250 251 251 252 252 252 252 253 254 254 254 253 252 253 255 254 253
259 257 255 256 254 253 253 252 253 252 251 252 251 250 250 249 248 247 247 246 245 245 246 247 248 248 249 250 251 251 251 252 253 253 253 253 253 252 252 252 253 254 253
259 258 257 256 255 253 252 252 252 252 252 252 252 251 250 249 248 248 247 247 246 246 246 247 248 248 249 250 251 250 251 251 253 253 253 253 253 252 252 253 254 254 253
259 258 258 258 257 254 253 252 251 252 253 253 252 251 250 248 248 247 247 247 246 246 246 247 248 248 248 249 250 251 251 252 253 254 254 254 253 252 252 253 254 255 254
261 259 258 258 256 254 253 253 253 251 251 252 251 251 250 248 246 246 247 247 247 247 247 247 248 249 249 250 251 251 251 252 253 254 255 254 253 253 252 253 254 254 255
261 260 259 257 256 253 252 251 251 252 252 251 251 250 250 249 247 246 246 248 248 247 247 248 249 250 250 250 251 252 252 251 252 253 254 254 253 253 253 254 255 255 255
261 260 259 257 255 253 251 250 250 250 251 251 251 251 250 249 249 248 247 248 248 247 248 248 249 250 250 250 252 253 253 252 253 254 253 254 254 254 254 254 255 255 255
262 260 259 257 256 254 251 250 250 250 249 250 251 250 250 250 250 250 248 248 248 247 247 248 248 250 251 251 252 253 254 254 254 255 255 254 254 254 255 255 255 254 254
261 260 259 258 257 255 252 251 250 250 250 249 250 249 248 249 249 249 249 250 249 248 248 248 249 250 251 251 252 254 254 254 255 255 255 255 254 254 254 254 254 255 255
262 261 260 258 257 256 254 252 251 250 250 250 249 248 248 248 248 248 249 250 250 249 250 250 251 251 251 252 252 254 255 256 257 255 255 255 254 254 254 254 254 254 255
262 261 261 259 258 257 255 254 252 251 250 250 249 249 248 246 247 248 248 249 250 250 249 249 249 250 252 253 253 254 256 257 256 254 254 255 255 254 254 254 254 255 255
263 261 261 259 258 257 256 255 252 251 250 250 250 250 249 248 248 248 248 249 250 251 249 247 249 250 250 252 253 255 255 256 255 255 255 255 255 255 256 256 255 255 255
264 262 261 260 259 258 256 255 254 251 250 250 250 250 250 249 248 248 248 248 249 251 250 248 249 250 251 252 253 254 255 255 255 255 255 255 256 255 256 256 256 255 256
Height
5833 5834 5835 5836 5837 5838 5839 5840 5841 5842 5843 5844 5844 5845 5846 5847 5848 5848 5849 5850 5851 5851 5852 5853 5853 5854 5854 5854 5855 5855 5856 5856 5857 5857 5858 5858 5858 5859 5859 5859 5859 5859 5859
5829 5830 5831 5832 5834 5835 5836 5837 5838 5839 5840 5841 5842 5843 5844 5845 5846 5847 5848 5848 5849 5850 5851 5851 5852 5853 5853 5853 5854 5854 5855 5855 5856 5857 5857 5857 5858 5858 5858 5859 5859 5859 5859
5825 5826 5828 5829 5830 5831 5833 5834 5835 5836 5837 5838 5839 5840 5841 5842 5843 5844 5845 5846 5847 5848 5849 5849 5850 5851 5851 5852 5852 5853 5854 5854 5855 5856 5856 5857 5857 5857 5858 5858 5858 5858 5858
5821 5822 5824 5825 5826 5827 5829 5830 5831 5832 5834 5835 5836 5837 5838 5839 5840 5842 5843 5843 5844 5845 5846 5847 5848 5849 5849 5850 5851 5851 5852 5853 5854 5854 5855 5856 5856 5856 5857 5857 5857 5857 5857
5817 5818 5819 5820 5821 5823 5824 5826 5827 5828 5830 5831 5832 5833 5835 5836 5837 5838 5839 5841 5841 5842 5843 5844 5845 5846 5847 5848 5849 5850 5850 5851 5852 5853 5853 5854 5855 5855 5855 5856 5856 5856 5856
5812 5813 5814 5816 5817 5818 5820 5821 5822 5824 5825 5827 5828 5829 5831 5832 5834 5835 5836 5837 5838 5839 5840 5841 5842 5843 5844 5845 5846 5847 5848 5849 5850 5851 5852 5852 5853 5853 5854 5854 5855 5855 5855
5806 5808 5809 5810 5812 5813 5814 5816 5817 5819 5820 5822 5823 5825 5826 5828 5829 5831 5832 5834 5835 5836 5837 5838 5839 5840 5841 5842 5843 5844 5845 5846 5848 5849 5849 5850 5851 5851 5852 5852 5853 5853 5853
5800 5802 5803 5804 5806 5807 5809 5810 5812 5813 5815 5816 5818 5820 5821 5823 5825 5826 5828 5829 5831 5832 5833 5834 5835 5837 5838 5839 5840 5841 5842 5844 5845 5846 5847 5848 5848 5849 5850 5850 5851 5851 5851
5793 5795 5797 5798 5799 5801 5802 5804 5806 5807 5809 5810 5812 5814 5816 5817 5819 5820 5822 5824 5826 5827 5829 5830 5831 5833 5834 5835 5837 5838 5839 5840 5842 5843 5844 5845 5846 5846 5847 5848 5848 5849 5849
5785 5787 5789 5791 5793 5794 5796 5797 5799 5801 5802 5804 5806 5807 5809 5811 5813 5814 5816 5819 5821 5822 5824 5825 5827 5828 5830 5831 5833 5834 5835 5837 5838 5840 5841 5842 5842 5843 5844 5845 5846 5846 5847
5777 5779 5781 5783 5785 5787 5788 5790 5792 5794 5796 5797 5799 5801 5803 5805 5807 5809 5811 5813 5815 5817 5818 5820 5822 5823 5825 5827 5828 5830 5831 5833 5834 5836 5837 5838 5839 5840 5841 5842 5842 5843 5844
5769 5771 5772 5774 5776 5778 5780 5782 5784 5786 5788 5790 5792 5794 5796 5798 5800 5802 5804 5807 5809 5811 5813 5814 5816 5818 5820 5822 5823 5825 5826 5828 5830 5831 5833 5834 5835 5836 5837 5838 5839 5840 5841
5760 5762 5763 5765 5767 5769 5772 5774 5776 5778 5780 5782 5784 5786 5788 5791 5793 5795 5798 5800 5802 5804 5806 5808 5811 5813 5815 5816 5818 5820 5821 5823 5825 5827 5828 5829 5831 5832 5833 5834 5835 5836 5837
5751 5753 5754 5756 5758 5760 5763 5765 5767 5769 5771 5773 5776 5778 5780 5783 5785 5788 5790 5793 5795 5797 5799 5802 5804 5806 5808 5810 5812 5814 5816 5818 5819 5821 5823 5824 5826 5827 5829 5830 5831 5832 5833
5741 5743 5745 5747 5748 5751 5753 5755 5757 5760 5762 5764 5766 5769 5771 5774 5777 5780 5782 5784 5787 5790 5792 5795 5797 5800 5802 5804 5806 5808 5810 5812 5813 5815 5817 5818 5820 5822 5823 5825 5826 5827 5828
5731 5733 5735 5737 5738 5740 5742 5744 5746 5749 5752 5754 5756 5759 5762 5765 5768 5771 5774 5776 5779 5782 5784 5787 5789 5792 5795 5797 5799 5801 5803 5805 5807 5809 5811 5812 5814 5816 5817 5819 5820 5822 5823
5721 5722 5724 5726 5728 5730 5732 5734 5736 5738 5741 5744 5747 5749 5752 5755 5758 5761 5764 5767 5770 5773 5776 5779 5781 5784 5787 5789 5792 5794 5796 5798 5800 5802 5804 5805 5807 5809 5811 5813 5814 5816 5817
5710 5711 5713 5715 5717 5719 5721 5724 5726 5729 5731 5734 5736 5739 5742 5745 5748 5751 5754 5758 5761 5764 5767 5770 5773 5776 5779 5781 5784 5786 5788 5791 5793 5795 5796 5799 5801 5802 5804 5806 5807 5809 5811
5699 5700 5702 5704 5705 5708 5710 5713 5716 5719 5721 5724 5726 5729 5732 5735 5738 5741 5744 5748 5751 5754 5757 5761 5764 5767 5770 5773 5775 5778 5780 5782 5785 5787 5789 5791 5793 5795 5797 5799 5801 5802 5804
5688 5690 5691 5693 5694 5697 5699 5702 5705 5708 5711 5714 5716 5719 5722 5724 5727 5730 5734 5737 5740 5744 5747 5751 5755 5758 5761 5764 5766 5768 5771 5773 5776 5778 5780 5782 5785 5787 5789 5791 5793 5795 5796
5678 5679 5681 5682 5684 5686 5688 5691 5694 5697 5700 5703 5705 5708 5711 5714 5717 5720 5723 5726 5729 5733 5737 5741 5744 5748 5751 5754 5757 5759 5761 5764 5766 5769 5771 5773 5775 5778 5780 5782 5784 5786 5788
5667 5668 5669 5671 5673 5675 5677 5680 5683 5686 5689 5692 5694 5697 5700 5703 5706 5709 5713 5716 5719 5722 5726 5730 5734 5738 5741 5744 5747 5749 5752 5754 5756 5759 5761 5764 5766 5768 5770 5773 5775 5777 5780
5655 5656 5658 5659 5661 5663 5666 5668 5671 5674 5677 5680 5683 5686 5689 5692 5695 5698 5702 5705 5708 5711 5715 5719 5723 5727 5730 5733 5736 5739 5741 5744 5747 5749 5751 5754 5756 5758 5761 5763 5766 5768 5770
5644 5645 5646 5648 5649 5651 5653 5656 5658 5662 5665 5668 5671 5674 5677 5680 5683 5687 5690 5694 5697 5700 5704 5707 5711 5715 5719 5722 5725 5727 5730 5733 5736 5738 5740 5743 5746 5748 5751 5753 5756 5758 5760
5631 5633 5634 5635 5637 5638 5641 5643 5646 5649 5652 5655 5658 5662 5665 5668 5671 5675 5678 5682 5685 5688 5692 5696 5699 5703 5707 5710 5713 5715 5718 5720 5723 5726 5730 5732 5735 5738 5740 5742 5745 5747 5750
5619 5620 5621 5622 5624 5625 5628 5630 5632 5635 5639 5642 5645 5649 5652 5655 5658 5662 5666 5670 5673 5676 5680 5683 5687 5690 5694 5697 5700 5703 5705 5708 5711 5714 5717 5720 5723 5726 5728 5731 5733 5736 5739